FENGYUN 1C DEB, 30739

Orbit data source: Space-Track

FENGYUN 1C DEB, 30739 is space debris in SSO originally from a launch on Mon, 10 May 1999 UTC launched from the Taiyaun Space Center, China (TSC). Fengyun 1C debris stems from the Chinese weather satellite Fengyun-1C, which was intentionally destroyed by a Chinese anti-satellite missile in 2007. This event dramatically increased the amount of space debris, with thousands of trackable fragments posing hazards to satellites and human spaceflight. The Fengyun 1C debris cloud has become a focal point in discussions about space sustainability and the need for international regulations to prevent the creation of new debris.

Loading next visibility...
Identifier
30739, 1999-025ASZ
Orbit
SSO
Country
Flag of CNCN / PRC
Related business
Manufacturer
Unknown
Mission
Spacecraft
Bus & Motor
Unknown
Mass
Unknown
Launch date (UTC)
1999-05-10 (27 years ago)
Launch vehicle
Unknown
Launch site
Taiyaun Space Center, China (TSC)
Object type
Payload
Rocket body
Debris
Shape & HBR
Unknown shape, 0.1 m
Radar Cross Section
Medium (>0.1 m² and <1 m²)

Expand to show TLE details & history
Last TLE update: 1 week ago

TLE from 1 week ago
0 FENGYUN 1C DEB
1 30739U 99025ASZ 26152.42811637  .00000484  00000-0  25840-3 0  9993
2 30739  98.7071 140.3971 0100453 187.9522 326.9834 14.15198197992773
Epoch: 2026-06-01T10:16Z
TLE epoch observation values (Epoch: 2026-06-01T10:16:29.254Z)
Latitude
25.41277°
Longitude
-79.49002°
Altitude
784.104 km
Speed
7.495 km/s
True Right ascension
21h 38m 11s
True Declination
25° 16' 49"
Sunlit
Object was in daylight at epoch
Visualization orbit readout
Latitude
Unknown
Longitude
Unknown
Altitude
Unknown
Speed
Unknown
Apparent Right ascension
Unknown
Apparent Declination
Unknown
Sunlit
N/A
Visualization observer readout
Local Sidereal Time
20:59:28
Azimuth
Unknown
Elevation
Unknown
Doppler factor
Unknown
Orbital elements
Apogee altitude
911.299 km
Perigee altitude
766.306 km
Semi-major axis
7,216.939 km
Eccentricity
0.01005
Inclination
98.7071°
RAAN
140.3971°
Arg. of periapsis
187.9522°
True anomaly
326.34952°
Mean anomaly
326.9834°
Eccentric anomaly
326.66713°
Mean motion
3.54008 °/min
Orbital period
101.69 mins
BSTAR
0.0002584
Loading maneuver chart data...
Computing Atmospheric mass density...
Loading historical data...
Loading historical data...
Loading historical data...
Loading historical data...
Loading historical data...
Loading historical data...
Loading historical data...

Documentation

Showing up to 5 results
|